Regional Weather Roundup
Issued by NWS

Home | Current Version | Previous Version | Text Only | Print | Product List | Glossary Off
Versions: 1 2 3 4 5 6 7 8 9 10 11 12 13 14 15 16 17 18 19 20 21 22 23 24 25 26 27 28 29 30 31 32 33 34 35 36 37 38 39 40 41 42 43 44 45 46 47 48 49 50

000
ASUS45 KSLC 211410
RWRUT

UTAH REGIONAL WEATHER ROUNDUP
NATIONAL WEATHER SERVICE SALT LAKE CITY UT
800 AM MDT THU AUG 21 2014

UTZ001>011-023>025-211500-

NORTHERN UTAH

CITY           SKY/WX    TMP DP  RH WIND       PRES   REMARKS
HILL AFB       CLOUDY    63  54  72 N10       30.09R
LOGAN          CLOUDY    59  55  87 NE13      30.11R
OGDEN          CLOUDY    62  56  80 NW10      30.07R
PROVO AIRPORT  PTSUNNY   61  50  67 SE7       30.12R
SALT LAKE CITY CLOUDY    68  51  54 SE9       30.04R
VERNAL         MOSUNNY   58  50  75 NW3       30.17R
WENDOVER       CLOUDY    66  50  55 NE14      30.05R
HEBER CITY     CLOUDY    54  52  94 CALM      30.17R
WEST JORDAN    CLOUDY    66  57  72 S17       30.08R

$$

UTZ012>022-026-027-211500-

SOUTHERN UTAH

CITY           SKY/WX    TMP DP  RH WIND       PRES   REMARKS
BRYCE CANYON   PTSUNNY   47  44  90 W3        30.31R
CEDAR CITY     PTSUNNY   59  47  64 S6        30.17R
MILFORD        MOSUNNY   61  47  59 SW15      30.13R
MOAB/CYNLANDS  SUNNY     62  56  80 NE3       30.11R
PRICE          PTSUNNY   61  48  62 CALM      30.19R
ST GEORGE      PTSUNNY   68  55  64 CALM      30.06R
KANAB            N/A     57  50  77 CALM      30.20R

$$

REGIONAL REPORTS     COLORADO/ARIZONA

CITY           SKY/WX    TMP DP  RH WIND       PRES   REMARKS
CRAIG, CO      MOSUNNY   57  52  83 E5        30.22R
GRAND JUNCTION SUNNY     60  49  66 SE9       30.15R
RIFLE          SUNNY     58  48  69 CALM      30.21R
MONTROSE       SUNNY     58  45  62 S6        30.24R
CORTEZ         SUNNY     57  44  62 E3        30.23R
PAGE, AZ       MOSUNNY   68  49  50 CALM      30.12R
GRAND CANYON   PTSUNNY   48  46  93 NE3       30.26
KINGMAN        PTSUNNY   68  52  56 SE10      30.05R
FLAGSTAFF      PTSUNNY   49  45  86 CALM      30.29R

$$

REGIONAL REPORTS    NEVADA/IDAHO/WYOMING

CITY           SKY/WX    TMP DP  RH WIND       PRES   REMARKS
LAS VEGAS, NV  MOSUNNY   77  49  37 S5        29.92R
ELY            PTSUNNY   57  40  52 S12       30.19R
ELKO           CLOUDY    63  48  58 NE5       30.05R
POCATELLO, ID  PTSUNNY   57  57 100 N5        30.08R
BURLEY         CLOUDY    58  55  90 N5        30.03R
EVANSTON, WY   CLOUDY    52  48  86 SW8       30.21R
ROCK SPRINGS   MOSUNNY   53  45  74 NE5       30.20R

$$



USA.gov is the U.S. government's official web portal to all federal, state and local government web resources and services.